Location: Corcelles
(46.1547°N, 4.7234°E)
Time: 04:42:17
(UTC+00:00)

Cosmos 1190 Rocket - Pass Details

Date: 14 July 2020
Orbit: 756 x 781 km, 74.1° (Epoch: 06 August)

Event Time Altitude Azimuth Distance (km) Brightness Sun altitude
Exits shadow 02:06:38 23° 227° (SW) 1,571 5.0 -15.2°
Maximum altitude 02:09:42 54° 296° (WNW) 929 4.4 -14.9°
Drops below altitude 10° 02:14:52 10° 14° (NNE) 2,320 7.6 -14.4°
Sets 02:17:19 0° 19° (NNE) 3,255 8.8 -14.2°
